sat.trackr.live / text

‹ back to catalog

FLORIPASAT-1

NORAD 44885 · 2019-093G

PAYLOAD ACTIVE UNKNOWN

§ Identity

Operator
Country
BRAZ
Launch date
2019-12-20
Launch site
TAISC
Launch vehicle
Mass (kg)
RCS (m²)

External: N2YO · Heavens-Above · Gunter

§ Orbital elements

Epoch: 2026-09-10T04:05:29.160096Z

Period
95.71 min
Inclination
97.7919°
Eccentricity
0.0012428
Mean motion
15.04620657 rev/d
Perigee alt
544.1 km
Apogee alt
561.3 km
Semi-major
6,930.8 km
B*
2.7526e-4
RAAN
348.0677°
Arg perigee
137.4475°
Mean anomaly
222.7716°
Rev number
36,542

§ Raw data

FLORIPASAT-11 44885U 19093G   26253.17047639  .00003809  00000+0  27526-3 0  99902 44885  97.7919 348.0677 0012428 137.4475 222.7716 15.04620657365429

JSON: /api/v1/satellites/44885 · /tle

For live sub-satellite position, see the globe view (requires WebGL).

§ Visibility from observer

Set your observer location to see the next 7 days of passes ≥ 10°. The values pass through the URL so the page stays shareable.

No JS? Fill the form by hand. The geolocation button needs JavaScript.

§ Radio — SatNOGS DB

ModeDescriptionDownlinkUplink
GFSK Mode U/U GFSK2k4 Repeater 436.100 MHz 436.100 MHz
GFSK Mode V GFSK1k2 AX.25 Beacon 145.900 MHz

2 transmitters · refreshed weekly from db.satnogs.org